Time,TemperatureF,DewpointF,PressureIn,WindDirection,WindDirectionDegrees,WindSpeedMPH,WindSpeedGustMPH,Humidity,HourlyPrecipIn,Conditions,Clouds,dailyrainin,SoftwareType,DateUTC
2013-05-30 00:03:00,54.1,47.4,20.60,WNW,300,3.0,6.0,78,0.00,,---,0.00,VWS V13.01,2013-05-30 07:03:00,
2013-05-30 00:08:00,54.0,47.3,20.60,WNW,284,4.0,12.0,78,0.00,,---,0.00,VWS V13.01,2013-05-30 07:08:00,
2013-05-30 00:13:00,54.0,47.3,20.60,WNW,292,0.0,12.0,78,0.00,,---,0.00,VWS V13.01,2013-05-30 07:13:00,
2013-05-30 00:18:00,54.0,47.3,20.60,WSW,256,0.0,12.0,78,0.00,,---,0.00,VWS V13.01,2013-05-30 07:18:00,
2013-05-30 00:23:00,53.9,47.2,20.60,SW,236,1.0,12.0,78,0.00,,---,0.00,VWS V13.01,2013-05-30 07:23:00,
2013-05-30 00:28:00,53.9,47.2,20.60,SW,236,0.0,12.0,78,0.00,,---,0.00,VWS V13.01,2013-05-30 07:28:00,
2013-05-30 00:33:00,53.8,47.1,20.60,SW,227,4.0,12.0,78,0.00,,---,0.00,VWS V13.01,2013-05-30 07:33:00,
2013-05-30 00:38:00,53.7,47.0,20.60,WSW,243,0.0,12.0,78,0.00,,---,0.00,VWS V13.01,2013-05-30 07:38:00,
2013-05-30 00:43:00,53.6,46.9,29.78,WNW,287,3.0,12.0,78,0.00,,---,0.00,VWS V13.01,2013-05-30 07:43:00,
2013-05-30 00:48:00,53.5,46.8,29.78,West,277,0.0,12.0,78,0.00,,---,0.00,VWS V13.01,2013-05-30 07:48:00,
2013-05-30 00:53:00,53.4,46.7,29.78,West,278,0.0,12.0,78,0.00,,---,0.00,VWS V13.01,2013-05-30 07:53:00,
2013-05-30 00:58:00,53.4,46.7,29.78,West,277,0.0,12.0,78,0.00,,---,0.00,VWS V13.01,2013-05-30 07:58:00,
2013-05-30 01:06:00,53.3,46.6,29.78,WSW,248,1.0,12.0,78,0.00,,---,0.00,VWS V13.01,2013-05-30 08:06:00,
2013-05-30 01:11:00,53.1,46.4,29.78,West,259,0.0,2.0,78,0.00,,---,0.00,VWS V13.01,2013-05-30 08:11:00,
2013-05-30 01:16:00,53.1,46.8,29.78,SW,221,0.0,2.0,79,0.00,,---,0.00,VWS V13.01,2013-05-30 08:16:00,
2013-05-30 01:21:00,53.1,46.4,29.78,SW,220,0.0,2.0,78,0.00,,---,0.00,VWS V13.01,2013-05-30 08:21:00,
2013-05-30 01:26:00,53.0,46.3,29.78,SSW,209,0.0,2.0,78,0.00,,---,0.00,VWS V13.01,2013-05-30 08:26:00,
2013-05-30 01:31:00,53.0,46.7,29.78,SSW,209,0.0,2.0,79,0.00,,---,0.00,VWS V13.01,2013-05-30 08:31:00,
2013-05-30 01:36:00,52.8,46.5,29.78,SSW,209,0.0,2.0,79,0.00,,---,0.00,VWS V13.01,2013-05-30 08:36:00,
2013-05-30 01:41:00,52.7,46.4,29.78,SSW,210,0.0,4.0,79,0.00,,---,0.00,VWS V13.01,2013-05-30 08:41:00,
2013-05-30 01:46:00,52.5,46.2,29.78,SSW,210,0.0,4.0,79,0.00,,---,0.00,VWS V13.01,2013-05-30 08:46:00,
2013-05-30 01:51:00,52.3,46.0,29.78,SSW,210,0.0,4.0,79,0.00,,---,0.00,VWS V13.01,2013-05-30 08:51:00,
2013-05-30 01:56:00,52.1,45.8,29.78,SSW,202,0.0,4.0,79,0.00,,---,0.00,VWS V13.01,2013-05-30 08:56:00,
2013-05-30 02:01:00,52.0,45.7,29.78,SSW,202,0.0,4.0,79,0.00,,---,0.00,VWS V13.01,2013-05-30 09:01:00,
2013-05-30 02:06:00,51.9,45.6,28.50,SSW,202,0.0,0.0,79,0.00,,---,0.00,VWS V13.01,2013-05-30 09:06:00,
2013-05-30 02:11:00,51.9,45.9,28.50,SSW,202,0.0,0.0,80,0.00,,---,0.00,VWS V13.01,2013-05-30 09:11:00,
2013-05-30 02:16:00,51.7,45.7,28.50,SSW,202,0.0,0.0,80,0.00,,---,0.00,VWS V13.01,2013-05-30 09:16:00,
2013-05-30 02:21:00,51.6,45.6,24.36,SSW,202,0.0,0.0,80,0.00,,---,0.00,VWS V13.01,2013-05-30 09:21:00,
2013-05-30 02:26:00,51.5,45.5,24.36,West,259,0.0,4.0,80,0.00,,---,0.00,VWS V13.01,2013-05-30 09:26:00,
2013-05-30 02:31:00,51.5,45.5,26.61,SW,234,0.0,4.0,80,0.00,,---,0.00,VWS V13.01,2013-05-30 09:31:00,
2013-05-30 02:36:00,51.5,45.5,26.61,SW,234,0.0,4.0,80,0.00,,---,0.00,VWS V13.01,2013-05-30 09:36:00,
2013-05-30 02:41:00,51.5,45.5,26.61,SW,234,0.0,4.0,80,0.00,,---,0.00,VWS V13.01,2013-05-30 09:41:00,
2013-05-30 02:46:00,51.6,45.6,26.61,SW,234,0.0,4.0,80,0.00,,---,0.00,VWS V13.01,2013-05-30 09:46:00,
2013-05-30 02:51:00,51.7,45.7,26.61,WSW,240,0.0,4.0,80,0.00,,---,0.00,VWS V13.01,2013-05-30 09:51:00,
2013-05-30 02:56:00,51.8,46.2,26.61,WNW,286,0.0,4.0,81,0.00,,---,0.00,VWS V13.01,2013-05-30 09:56:00,
2013-05-30 03:01:00,51.8,45.8,26.61,SW,230,0.0,5.0,80,0.00,,---,0.00,VWS V13.01,2013-05-30 10:01:00,
2013-05-30 03:06:00,51.9,46.3,26.61,SW,224,3.0,7.0,81,0.00,,---,0.00,VWS V13.01,2013-05-30 10:06:00,
2013-05-30 03:11:00,52.0,46.0,26.61,SW,225,0.0,7.0,80,0.00,,---,0.00,VWS V13.01,2013-05-30 10:11:00,
2013-05-30 03:16:00,52.1,46.1,26.61,SW,227,0.0,7.0,80,0.00,,---,0.00,VWS V13.01,2013-05-30 10:16:00,
2013-05-30 03:21:00,52.1,46.1,26.61,SW,232,0.0,7.0,80,0.00,,---,0.00,VWS V13.01,2013-05-30 10:21:00,
2013-05-30 03:26:00,52.1,46.1,26.61,WNW,293,1.0,7.0,80,0.00,,---,0.00,VWS V13.01,2013-05-30 10:26:00,
2013-05-30 03:31:00,52.2,45.9,26.61,WSW,239,2.0,7.0,79,0.00,,---,0.00,VWS V13.01,2013-05-30 10:31:00,
2013-05-30 03:36:00,52.3,46.0,26.61,SSW,211,4.0,7.0,79,0.00,,---,0.00,VWS V13.01,2013-05-30 10:36:00,
2013-05-30 03:41:00,52.4,46.1,26.61,West,263,0.0,7.0,79,0.00,,---,0.00,VWS V13.01,2013-05-30 10:41:00,
2013-05-30 03:46:00,52.3,46.0,26.61,West,271,2.0,7.0,79,0.00,,---,0.00,VWS V13.01,2013-05-30 10:46:00,
2013-05-30 03:51:00,52.2,45.9,26.61,SW,225,0.0,7.0,79,0.00,,---,0.00,VWS V13.01,2013-05-30 10:51:00,
2013-05-30 03:56:00,52.1,45.8,26.61,SW,225,0.0,7.0,79,0.00,,---,0.00,VWS V13.01,2013-05-30 10:56:00,
2013-05-30 04:01:00,51.9,45.6,17.59,SW,225,0.0,7.0,79,0.00,,---,0.00,VWS V13.01,2013-05-30 11:01:00,
2013-05-30 04:06:00,51.7,45.7,17.59,WSW,256,0.0,1.0,80,0.00,,---,0.00,VWS V13.01,2013-05-30 11:06:00,
2013-05-30 04:11:00,51.6,45.6,17.59,WSW,246,0.0,2.0,80,0.00,,---,0.00,VWS V13.01,2013-05-30 11:11:00,
2013-05-30 04:16:00,51.5,45.5,17.59,WSW,246,0.0,2.0,80,0.00,,---,0.00,VWS V13.01,2013-05-30 11:16:00,
2013-05-30 04:21:00,51.4,45.8,17.59,WSW,246,0.0,2.0,81,0.00,,---,0.00,VWS V13.01,2013-05-30 11:21:00,
2013-05-30 04:26:00,51.3,45.7,28.50,WSW,245,0.0,2.0,81,0.00,,---,0.00,VWS V13.01,2013-05-30 11:26:00,
2013-05-30 04:31:00,51.2,45.6,28.50,WSW,246,0.0,2.0,81,0.00,,---,0.00,VWS V13.01,2013-05-30 11:31:00,
2013-05-30 04:36:00,51.0,45.4,28.50,WSW,246,0.0,2.0,81,0.00,,---,0.00,VWS V13.01,2013-05-30 11:36:00,
2013-05-30 04:41:00,50.8,45.5,28.50,WSW,246,0.0,2.0,82,0.00,,---,0.00,VWS V13.01,2013-05-30 11:41:00,
2013-05-30 04:46:00,50.7,45.1,28.50,WSW,245,0.0,2.0,81,0.00,,---,0.00,VWS V13.01,2013-05-30 11:46:00,
2013-05-30 04:51:00,50.5,44.9,28.50,WSW,246,0.0,2.0,81,0.00,,---,0.00,VWS V13.01,2013-05-30 11:51:00,
2013-05-30 04:56:00,50.3,45.0,28.50,WSW,246,0.0,2.0,82,0.00,,---,0.00,VWS V13.01,2013-05-30 11:56:00,
2013-05-30 05:01:00,50.1,44.8,28.50,WSW,246,0.0,2.0,82,0.00,,---,0.00,VWS V13.01,2013-05-30 12:01:00,
2013-05-30 05:06:00,49.9,44.6,28.50,WSW,245,0.0,0.0,82,0.00,,---,0.00,VWS V13.01,2013-05-30 12:06:00,
2013-05-30 05:11:00,49.8,44.8,28.50,WSW,246,0.0,0.0,83,0.00,,---,0.00,VWS V13.01,2013-05-30 12:11:00,
2013-05-30 05:16:00,49.6,44.7,28.50,SW,232,0.0,2.0,83,0.00,,---,0.00,VWS V13.01,2013-05-30 12:16:00,
2013-05-30 05:21:00,49.6,44.7,28.50,SW,232,0.0,2.0,83,0.00,,---,0.00,VWS V13.01,2013-05-30 12:21:00,
2013-05-30 05:26:00,49.6,44.7,28.50,SW,232,0.0,2.0,83,0.00,,---,0.00,VWS V13.01,2013-05-30 12:26:00,
2013-05-30 05:31:00,49.6,44.7,28.50,SW,232,0.0,2.0,83,0.00,,---,0.00,VWS V13.01,2013-05-30 12:31:00,
2013-05-30 05:36:00,49.7,44.8,28.50,SW,232,0.0,3.0,83,0.00,,---,0.00,VWS V13.01,2013-05-30 12:36:00,
2013-05-30 05:41:00,49.7,44.8,28.15,SW,231,0.0,4.0,83,0.00,,---,0.00,VWS V13.01,2013-05-30 12:41:00,
2013-05-30 05:46:00,49.9,45.0,28.15,SW,231,0.0,4.0,83,0.00,,---,0.00,VWS V13.01,2013-05-30 12:46:00,
2013-05-30 05:51:00,49.9,45.0,28.48,SW,230,0.0,4.0,83,0.00,,---,0.00,VWS V13.01,2013-05-30 12:51:00,
2013-05-30 05:56:00,49.9,45.0,28.48,SW,231,0.0,4.0,83,0.00,,---,0.00,VWS V13.01,2013-05-30 12:56:00,
2013-05-30 06:01:00,49.8,44.8,28.48,SW,231,0.0,4.0,83,0.00,,---,0.00,VWS V13.01,2013-05-30 13:01:00,
2013-05-30 06:06:00,49.9,45.0,28.48,SW,231,0.0,2.0,83,0.00,,---,0.00,VWS V13.01,2013-05-30 13:06:00,
2013-05-30 06:11:00,49.8,44.8,28.48,SW,230,0.0,2.0,83,0.00,,---,0.00,VWS V13.01,2013-05-30 13:11:00,
2013-05-30 06:16:00,49.8,44.8,28.48,SW,231,0.0,2.0,83,0.00,,---,0.00,VWS V13.01,2013-05-30 13:16:00,
2013-05-30 06:21:00,49.8,44.8,28.48,West,266,0.0,5.0,83,0.00,,---,0.00,VWS V13.01,2013-05-30 13:21:00,
2013-05-30 06:26:00,49.9,45.0,28.48,West,265,0.0,5.0,83,0.00,,---,0.00,VWS V13.01,2013-05-30 13:26:00,
2013-05-30 06:31:00,50.0,45.4,28.48,West,265,0.0,5.0,84,0.00,,---,0.00,VWS V13.01,2013-05-30 13:31:00,
2013-05-30 06:36:00,50.3,45.7,28.48,SW,223,0.0,5.0,84,0.00,,---,0.00,VWS V13.01,2013-05-30 13:36:00,
2013-05-30 06:41:00,50.7,45.7,28.48,SW,222,0.0,5.0,83,0.00,,---,0.00,VWS V13.01,2013-05-30 13:41:00,
2013-05-30 06:46:00,51.1,45.8,28.48,SW,225,0.0,5.0,82,0.00,,---,0.00,VWS V13.01,2013-05-30 13:46:00,
2013-05-30 06:51:00,51.5,46.2,28.48,WNW,290,0.0,5.0,82,0.00,,---,0.00,VWS V13.01,2013-05-30 13:51:00,
2013-05-30 06:56:00,52.1,46.5,28.48,SW,229,0.0,5.0,81,0.00,,---,0.00,VWS V13.01,2013-05-30 13:56:00,
2013-05-30 07:01:00,52.6,46.6,28.48,West,281,0.0,5.0,80,0.00,,---,0.00,VWS V13.01,2013-05-30 14:01:00,
2013-05-30 07:06:00,52.9,46.6,28.50,West,265,0.0,1.0,79,0.00,,---,0.00,VWS V13.01,2013-05-30 14:06:00,
2013-05-30 07:11:00,53.2,46.5,28.50,WNW,292,0.0,4.0,78,0.00,,---,0.00,VWS V13.01,2013-05-30 14:11:00,
2013-05-30 07:16:00,53.7,47.0,28.50,WSW,249,2.0,4.0,78,0.00,,---,0.00,VWS V13.01,2013-05-30 14:16:00,
2013-05-30 07:21:00,53.9,46.9,28.50,West,280,0.0,4.0,77,0.00,,---,0.00,VWS V13.01,2013-05-30 14:21:00,
2013-05-30 07:26:00,54.2,47.2,28.50,SW,227,0.0,4.0,77,0.00,,---,0.00,VWS V13.01,2013-05-30 14:26:00,
2013-05-30 07:31:00,54.5,47.1,28.50,WNW,291,1.0,4.0,76,0.00,,---,0.00,VWS V13.01,2013-05-30 14:31:00,
2013-05-30 07:36:00,54.5,47.1,24.36,WNW,297,0.0,4.0,76,0.00,,---,0.00,VWS V13.01,2013-05-30 14:36:00,
2013-05-30 07:41:00,54.8,47.0,17.59,NW,314,0.0,4.0,75,0.00,,---,0.00,VWS V13.01,2013-05-30 14:41:00,
2013-05-30 07:45:00,55.2,47.4,17.59,NW,313,0.0,4.0,75,0.00,,---,0.00,VWS V13.01,2013-05-30 14:45:00,
2013-05-30 07:50:00,55.4,47.3,17.59,WNW,286,1.0,5.0,74,0.00,,---,0.00,VWS V13.01,2013-05-30 14:50:00,
2013-05-30 07:55:00,55.5,47.4,17.59,WNW,299,0.0,5.0,74,0.00,,---,0.00,VWS V13.01,2013-05-30 14:55:00,
2013-05-30 08:00:00,55.6,47.1,22.10,WNW,302,0.0,7.0,73,0.00,,---,0.00,VWS V13.01,2013-05-30 15:00:00,
2013-05-30 08:05:00,55.7,47.2,22.10,NW,315,0.0,5.0,73,0.00,,---,0.00,VWS V13.01,2013-05-30 15:05:00,
2013-05-30 08:10:00,55.9,47.4,22.10,West,279,1.0,7.0,73,0.00,,---,0.00,VWS V13.01,2013-05-30 15:10:00,
2013-05-30 08:15:00,55.9,47.4,22.10,West,280,0.0,7.0,73,0.00,,---,0.00,VWS V13.01,2013-05-30 15:15:00,
2013-05-30 08:20:00,56.3,47.4,22.10,WSW,240,0.0,7.0,72,0.00,,---,0.00,VWS V13.01,2013-05-30 15:20:00,
2013-05-30 08:25:00,56.6,47.7,22.10,WSW,244,1.0,7.0,72,0.00,,---,0.00,VWS V13.01,2013-05-30 15:25:00,
2013-05-30 08:30:00,57.0,47.7,22.10,WNW,296,4.0,8.0,71,0.00,,---,0.00,VWS V13.01,2013-05-30 15:30:00,
2013-05-30 08:35:00,57.1,47.0,22.10,West,277,5.0,9.0,69,0.00,,---,0.00,VWS V13.01,2013-05-30 15:35:00,
2013-05-30 08:40:00,57.2,47.1,31.12,NW,309,3.0,9.0,69,0.00,,---,0.00,VWS V13.01,2013-05-30 15:40:00,
2013-05-30 08:45:00,57.6,47.1,31.12,SW,229,4.0,9.0,68,0.00,,---,0.00,VWS V13.01,2013-05-30 15:45:00,
2013-05-30 08:50:00,58.1,47.2,31.12,WSW,250,0.0,9.0,67,0.00,,---,0.00,VWS V13.01,2013-05-30 15:50:00,
2013-05-30 08:55:00,58.6,47.3,31.12,SW,223,0.0,9.0,66,0.00,,---,0.00,VWS V13.01,2013-05-30 15:55:00,
2013-05-30 09:00:00,59.1,47.8,31.12,WSW,249,0.0,9.0,66,0.00,,---,0.00,VWS V13.01,2013-05-30 16:00:00,
2013-05-30 09:05:00,59.3,47.1,31.12,West,261,1.0,10.0,64,0.00,,---,0.00,VWS V13.01,2013-05-30 16:05:00,
2013-05-30 09:10:00,59.7,47.9,31.12,SW,233,3.0,10.0,65,0.00,,---,0.00,VWS V13.01,2013-05-30 16:10:00,
2013-05-30 09:15:00,60.1,47.0,31.12,WNW,296,3.0,10.0,62,0.00,,---,0.00,VWS V13.01,2013-05-30 16:15:00,
2013-05-30 09:20:00,60.0,47.4,31.12,West,279,1.0,10.0,63,0.00,,---,0.00,VWS V13.01,2013-05-30 16:20:00,
2013-05-30 09:25:00,60.5,47.9,31.12,NW,311,0.0,10.0,63,0.00,,---,0.00,VWS V13.01,2013-05-30 16:25:00,
2013-05-30 09:30:00,61.0,47.5,31.12,NW,321,0.0,10.0,61,0.00,,---,0.00,VWS V13.01,2013-05-30 16:30:00,
2013-05-30 09:35:00,61.6,47.6,31.12,West,275,0.0,10.0,60,0.00,,---,0.00,VWS V13.01,2013-05-30 16:35:00,
2013-05-30 09:40:00,61.8,46.9,16.51,WNW,288,0.0,10.0,58,0.00,,---,0.00,VWS V13.01,2013-05-30 16:40:00,
2013-05-30 09:45:00,61.8,46.4,16.51,NW,314,3.0,10.0,57,0.00,,---,0.00,VWS V13.01,2013-05-30 16:45:00,
2013-05-30 09:50:00,62.0,46.6,16.51,NW,323,0.0,10.0,57,0.00,,---,0.00,VWS V13.01,2013-05-30 16:50:00,
2013-05-30 09:55:00,62.5,47.1,16.51,NW,322,0.0,10.0,57,0.00,,---,0.00,VWS V13.01,2013-05-30 16:55:00,
2013-05-30 10:00:00,62.5,46.1,16.51,North,349,1.0,10.0,55,0.00,,---,0.00,VWS V13.01,2013-05-30 17:00:00,
2013-05-30 10:05:00,62.8,45.9,16.51,NW,326,2.0,5.0,54,0.00,,---,0.00,VWS V13.01,2013-05-30 17:05:00,
2013-05-30 10:10:00,63.4,46.5,16.51,West,279,0.0,5.0,54,0.00,,---,0.00,VWS V13.01,2013-05-30 17:10:00,
2013-05-30 10:15:00,63.8,46.8,16.51,WNW,301,0.0,5.0,54,0.00,,---,0.00,VWS V13.01,2013-05-30 17:15:00,
2013-05-30 10:20:00,64.6,46.6,16.51,West,279,1.0,5.0,52,0.00,,---,0.00,VWS V13.01,2013-05-30 17:20:00,
2013-05-30 10:25:00,64.9,46.9,16.51,SSW,196,0.0,5.0,52,0.00,,---,0.00,VWS V13.01,2013-05-30 17:25:00,
2013-05-30 10:30:00,65.3,45.7,16.51,WNW,292,0.0,5.0,49,0.00,,---,0.00,VWS V13.01,2013-05-30 17:30:00,
2013-05-30 10:35:00,65.8,46.1,16.51,WNW,288,3.0,6.0,49,0.00,,---,0.00,VWS V13.01,2013-05-30 17:35:00,
2013-05-30 10:40:00,65.8,45.0,16.51,NW,306,0.0,6.0,47,0.00,,---,0.00,VWS V13.01,2013-05-30 17:40:00,
2013-05-30 10:45:00,66.0,45.2,16.51,West,269,2.0,7.0,47,0.00,,---,0.00,VWS V13.01,2013-05-30 17:45:00,
2013-05-30 10:50:00,66.2,44.8,16.51,West,272,0.0,7.0,46,0.00,,---,0.00,VWS V13.01,2013-05-30 17:50:00,
2013-05-30 10:55:00,66.7,45.3,16.51,North,11,0.0,7.0,46,0.00,,---,0.00,VWS V13.01,2013-05-30 17:55:00,
2013-05-30 11:00:00,67.4,45.9,16.51,ENE,65,0.0,7.0,46,0.00,,---,0.00,VWS V13.01,2013-05-30 18:00:00,
2013-05-30 11:05:00,68.0,45.9,16.51,NW,326,4.0,6.0,45,0.00,,---,0.00,VWS V13.01,2013-05-30 18:05:00,
2013-05-30 11:10:00,68.0,45.9,20.60,NW,320,0.0,6.0,45,0.00,,---,0.00,VWS V13.01,2013-05-30 18:10:00,
2013-05-30 11:15:00,68.8,46.6,16.48,WNW,291,0.0,6.0,45,0.00,,---,0.00,VWS V13.01,2013-05-30 18:15:00,
2013-05-30 11:20:00,69.0,47.4,20.60,SW,231,0.0,7.0,46,0.00,,---,0.00,VWS V13.01,2013-05-30 18:20:00,
2013-05-30 11:25:00,69.4,47.2,20.60,WNW,290,3.0,7.0,45,0.00,,---,0.00,VWS V13.01,2013-05-30 18:25:00,
2013-05-30 11:30:00,69.2,47.6,20.60,West,276,7.0,12.0,46,0.00,,---,0.00,VWS V13.01,2013-05-30 18:30:00,
2013-05-30 11:35:00,69.2,47.6,20.60,West,261,4.0,12.0,46,0.00,,---,0.00,VWS V13.01,2013-05-30 18:35:00,
2013-05-30 11:40:00,69.3,47.7,17.20,WNW,294,4.0,12.0,46,0.00,,---,0.00,VWS V13.01,2013-05-30 18:40:00,
2013-05-30 11:45:00,69.2,47.0,17.20,West,260,0.0,12.0,45,0.00,,---,0.00,VWS V13.01,2013-05-30 18:45:00,
2013-05-30 11:50:00,69.4,46.6,17.20,WNW,286,2.0,12.0,44,0.00,,---,0.00,VWS V13.01,2013-05-30 18:50:00,
2013-05-30 11:55:00,69.5,46.0,28.40,WSW,242,0.0,12.0,43,0.00,,---,0.00,VWS V13.01,2013-05-30 18:55:00,
2013-05-30 12:00:00,69.9,47.0,28.40,SW,236,0.0,12.0,44,0.00,,---,0.00,VWS V13.01,2013-05-30 19:00:00,
2013-05-30 12:05:00,71.1,47.5,28.40,North,11,0.0,1.0,43,0.00,,---,0.00,VWS V13.01,2013-05-30 19:05:00,
2013-05-30 12:10:00,71.4,47.1,28.40,NNW,344,0.0,5.0,42,0.00,,---,0.00,VWS V13.01,2013-05-30 19:10:00,
2013-05-30 12:15:00,71.4,46.5,28.40,WNW,286,0.0,7.0,41,0.00,,---,0.00,VWS V13.01,2013-05-30 19:15:00,
2013-05-30 12:20:00,71.7,47.4,28.40,WNW,292,4.0,9.0,42,0.00,,---,0.00,VWS V13.01,2013-05-30 19:20:00,
2013-05-30 12:25:00,71.4,47.8,28.40,SW,217,3.0,9.0,43,0.00,,---,0.00,VWS V13.01,2013-05-30 19:25:00,
2013-05-30 12:30:00,71.7,48.7,28.40,West,277,6.0,9.0,44,0.00,,---,0.00,VWS V13.01,2013-05-30 19:30:00,
2013-05-30 12:35:00,72.2,47.9,28.40,WNW,286,3.0,11.0,42,0.00,,---,0.00,VWS V13.01,2013-05-30 19:35:00,
2013-05-30 12:40:00,72.6,48.2,28.40,WNW,291,6.0,11.0,42,0.00,,---,0.00,VWS V13.01,2013-05-30 19:40:00,
2013-05-30 12:45:00,72.5,47.5,28.40,WNW,287,0.0,11.0,41,0.00,,---,0.00,VWS V13.01,2013-05-30 19:45:00,
2013-05-30 12:50:00,72.4,48.0,28.40,WNW,290,3.0,11.0,42,0.00,,---,0.00,VWS V13.01,2013-05-30 19:50:00,
2013-05-30 12:55:00,72.6,48.2,28.40,WNW,282,6.0,11.0,42,0.00,,---,0.00,VWS V13.01,2013-05-30 19:55:00,
2013-05-30 13:00:00,73.0,47.9,28.40,WNW,289,4.0,11.0,41,0.00,,---,0.00,VWS V13.01,2013-05-30 20:00:00,
2013-05-30 13:05:00,73.1,48.0,28.40,WNW,292,3.0,4.0,41,0.00,,---,0.00,VWS V13.01,2013-05-30 20:05:00,
2013-05-30 13:10:00,73.5,48.4,28.40,SW,229,0.0,10.0,41,0.00,,---,0.00,VWS V13.01,2013-05-30 20:10:00,
2013-05-30 13:15:00,73.8,48.0,28.40,West,277,10.0,10.0,40,0.00,,---,0.00,VWS V13.01,2013-05-30 20:15:00,
2013-05-30 13:20:00,73.7,47.2,28.40,WNW,291,5.0,12.0,39,0.00,,---,0.00,VWS V13.01,2013-05-30 20:20:00,
2013-05-30 13:25:00,73.4,47.0,28.40,NW,310,9.0,13.0,39,0.00,,---,0.00,VWS V13.01,2013-05-30 20:25:00,
2013-05-30 13:30:00,73.4,47.6,28.40,WNW,287,5.0,13.0,40,0.00,,---,0.00,VWS V13.01,2013-05-30 20:30:00,
2013-05-30 13:35:00,73.7,47.9,28.40,West,280,5.0,13.0,40,0.00,,---,0.00,VWS V13.01,2013-05-30 20:35:00,
2013-05-30 13:40:00,73.5,47.7,28.40,West,265,4.0,13.0,40,0.00,,---,0.00,VWS V13.01,2013-05-30 20:40:00,
2013-05-30 13:45:00,73.5,47.7,20.60,West,263,4.0,13.0,40,0.00,,---,0.00,VWS V13.01,2013-05-30 20:45:00,
2013-05-30 13:50:00,73.9,48.1,20.60,WNW,300,10.0,13.0,40,0.00,,---,0.00,VWS V13.01,2013-05-30 20:50:00,
2013-05-30 13:55:00,73.8,48.7,20.60,WNW,300,10.0,13.0,41,0.00,,---,0.00,VWS V13.01,2013-05-30 20:55:00,
2013-05-30 14:00:00,73.6,48.5,20.60,North,360,2.0,13.0,41,0.00,,---,0.00,VWS V13.01,2013-05-30 21:00:00,
2013-05-30 14:05:00,73.2,48.1,20.60,WNW,292,10.0,15.0,41,0.00,,---,0.00,VWS V13.01,2013-05-30 21:05:00,
2013-05-30 14:10:00,72.7,48.3,20.60,WSW,244,6.0,15.0,42,0.00,,---,0.00,VWS V13.01,2013-05-30 21:10:00,
2013-05-30 14:15:00,72.2,48.5,20.60,West,265,1.0,15.0,43,0.00,,---,0.00,VWS V13.01,2013-05-30 21:15:00,
2013-05-30 14:20:00,72.6,48.8,20.60,SW,234,9.0,15.0,43,0.00,,---,0.00,VWS V13.01,2013-05-30 21:20:00,
2013-05-30 14:25:00,72.5,48.8,20.60,West,273,12.0,16.0,43,0.00,,---,0.00,VWS V13.01,2013-05-30 21:25:00,
2013-05-30 14:30:00,72.6,48.8,20.60,NW,309,8.0,16.0,43,0.00,,---,0.00,VWS V13.01,2013-05-30 21:30:00,
2013-05-30 14:35:00,72.8,48.4,20.60,West,261,13.0,16.0,42,0.00,,---,0.00,VWS V13.01,2013-05-30 21:35:00,
2013-05-30 14:40:00,72.9,49.1,20.60,WSW,250,0.0,16.0,43,0.00,,---,0.00,VWS V13.01,2013-05-30 21:40:00,
2013-05-30 14:45:00,73.4,48.9,20.60,West,279,4.0,16.0,42,0.00,,---,0.00,VWS V13.01,2013-05-30 21:45:00,
2013-05-30 14:50:00,73.3,48.2,20.60,WNW,297,7.0,16.0,41,0.00,,---,0.00,VWS V13.01,2013-05-30 21:50:00,
2013-05-30 14:55:00,73.1,49.3,20.60,NW,305,0.0,16.0,43,0.00,,---,0.00,VWS V13.01,2013-05-30 21:55:00,
2013-05-30 15:00:00,74.0,48.2,20.60,WSW,237,3.0,16.0,40,0.00,,---,0.00,VWS V13.01,2013-05-30 22:00:00,
2013-05-30 15:05:00,73.7,47.9,20.60,WNW,292,3.0,10.0,40,0.00,,---,0.00,VWS V13.01,2013-05-30 22:05:00,
2013-05-30 15:10:00,73.4,47.6,20.60,WSW,252,2.0,16.0,40,0.00,,---,0.00,VWS V13.01,2013-05-30 22:10:00,
2013-05-30 15:15:00,73.3,47.5,20.60,SSW,198,6.0,16.0,40,0.00,,---,0.00,VWS V13.01,2013-05-30 22:15:00,
2013-05-30 15:20:00,73.7,47.9,20.60,West,267,2.0,16.0,40,0.00,,---,0.00,VWS V13.01,2013-05-30 22:20:00,
2013-05-30 15:25:00,73.7,47.9,20.60,WNW,292,10.0,16.0,40,0.00,,---,0.00,VWS V13.01,2013-05-30 22:25:00,
2013-05-30 15:30:00,73.3,47.5,20.60,WNW,288,3.0,16.0,40,0.00,,---,0.00,VWS V13.01,2013-05-30 22:30:00,
2013-05-30 15:35:00,73.1,48.0,20.60,NW,316,3.0,16.0,41,0.00,,---,0.00,VWS V13.01,2013-05-30 22:35:00,
2013-05-30 15:40:00,73.0,48.6,20.60,WSW,248,5.0,16.0,42,0.00,,---,0.00,VWS V13.01,2013-05-30 22:40:00,
2013-05-30 15:45:00,73.1,48.0,20.60,West,269,9.0,16.0,41,0.00,,---,0.00,VWS V13.01,2013-05-30 22:45:00,
2013-05-30 15:50:00,72.6,47.6,20.60,NW,311,9.0,16.0,41,0.00,,---,0.00,VWS V13.01,2013-05-30 22:50:00,
2013-05-30 15:55:00,72.1,47.8,20.60,WNW,288,6.0,19.0,42,0.00,,---,0.00,VWS V13.01,2013-05-30 22:55:00,
2013-05-30 16:00:00,72.1,47.8,20.60,NNW,331,1.0,19.0,42,0.00,,---,0.00,VWS V13.01,2013-05-30 23:00:00,
2013-05-30 16:05:00,72.8,48.4,20.60,West,272,7.0,7.0,42,0.00,,---,0.00,VWS V13.01,2013-05-30 23:05:00,
2013-05-30 16:10:00,73.0,46.6,20.60,NW,306,6.0,11.0,39,0.00,,---,0.00,VWS V13.01,2013-05-30 23:10:00,
2013-05-30 16:15:00,72.7,45.7,20.60,WNW,288,3.0,15.0,38,0.00,,---,0.00,VWS V13.01,2013-05-30 23:15:00,
2013-05-30 16:20:00,72.5,46.2,20.60,NW,323,2.0,15.0,39,0.00,,---,0.00,VWS V13.01,2013-05-30 23:20:00,
2013-05-30 16:25:00,72.3,48.0,20.60,NW,320,7.0,15.0,42,0.00,,---,0.00,VWS V13.01,2013-05-30 23:25:00,
2013-05-30 16:30:00,71.8,46.9,20.60,WNW,291,2.0,15.0,41,0.00,,---,0.00,VWS V13.01,2013-05-30 23:30:00,
2013-05-30 16:35:00,71.7,47.4,20.60,NW,313,6.0,17.0,42,0.00,,---,0.00,VWS V13.01,2013-05-30 23:35:00,
2013-05-30 16:40:00,72.1,47.8,20.60,WNW,290,1.0,17.0,42,0.00,,---,0.00,VWS V13.01,2013-05-30 23:40:00,
2013-05-30 16:45:00,72.0,48.3,20.60,NW,307,7.0,17.0,43,0.00,,---,0.00,VWS V13.01,2013-05-30 23:45:00,
2013-05-30 16:50:00,71.7,48.7,20.60,WNW,284,6.0,17.0,44,0.00,,---,0.00,VWS V13.01,2013-05-30 23:50:00,
2013-05-30 16:55:00,72.5,48.1,20.60,WSW,246,4.0,17.0,42,0.00,,---,0.00,VWS V13.01,2013-05-30 23:55:00,
2013-05-30 17:00:00,72.3,48.6,20.60,West,279,6.0,17.0,43,0.00,,---,0.00,VWS V13.01,2013-05-31 00:00:00,
2013-05-30 17:05:00,72.1,47.8,20.60,West,271,2.0,15.0,42,0.00,,---,0.00,VWS V13.01,2013-05-31 00:05:00,
2013-05-30 17:10:00,71.5,47.8,20.60,WNW,286,6.0,15.0,43,0.00,,---,0.00,VWS V13.01,2013-05-31 00:10:00,
2013-05-30 17:15:00,71.4,47.8,20.60,WNW,286,3.0,15.0,43,0.00,,---,0.00,VWS V13.01,2013-05-31 00:15:00,
2013-05-30 17:20:00,71.3,47.7,20.60,NNW,344,12.0,15.0,43,0.00,,---,0.00,VWS V13.01,2013-05-31 00:20:00,
2013-05-30 17:25:00,70.8,47.8,20.60,WNW,293,4.0,15.0,44,0.00,,---,0.00,VWS V13.01,2013-05-31 00:25:00,
2013-05-30 17:30:00,70.5,47.6,20.60,WNW,296,4.0,15.0,44,0.00,,---,0.00,VWS V13.01,2013-05-31 00:30:00,
2013-05-30 17:35:00,70.4,48.1,20.60,West,273,1.0,15.0,45,0.00,,---,0.00,VWS V13.01,2013-05-31 00:35:00,
2013-05-30 17:40:00,71.2,48.8,17.20,WSW,238,3.0,15.0,45,0.00,,---,0.00,VWS V13.01,2013-05-31 00:40:00,
2013-05-30 17:45:00,71.0,48.0,17.20,WNW,303,1.0,15.0,44,0.00,,---,0.00,VWS V13.01,2013-05-31 00:45:00,
2013-05-30 17:50:00,69.9,47.6,17.20,WNW,285,5.0,15.0,45,0.00,,---,0.00,VWS V13.01,2013-05-31 00:50:00,
2013-05-30 17:55:00,69.4,47.7,17.20,WNW,291,12.0,15.0,46,0.00,,---,0.00,VWS V13.01,2013-05-31 00:55:00,
2013-05-30 18:00:00,68.7,48.2,17.20,SW,221,3.0,15.0,48,0.00,,---,0.00,VWS V13.01,2013-05-31 01:00:00,
2013-05-30 18:05:00,69.2,48.1,20.60,SW,232,3.0,10.0,47,0.00,,---,0.00,VWS V13.01,2013-05-31 01:05:00,
2013-05-30 18:10:00,69.0,48.0,20.60,WNW,285,4.0,15.0,47,0.00,,---,0.00,VWS V13.01,2013-05-31 01:10:00,
2013-05-30 18:15:00,68.5,47.5,20.60,SW,219,12.0,16.0,47,0.00,,---,0.00,VWS V13.01,2013-05-31 01:15:00,
2013-05-30 18:20:00,68.3,47.3,20.60,NNW,336,1.0,16.0,47,0.00,,---,0.00,VWS V13.01,2013-05-31 01:20:00,
2013-05-30 18:25:00,68.4,48.0,20.60,SSW,206,2.0,16.0,48,0.00,,---,0.00,VWS V13.01,2013-05-31 01:25:00,
2013-05-30 18:30:00,68.2,47.8,20.60,West,275,2.0,16.0,48,0.00,,---,0.00,VWS V13.01,2013-05-31 01:30:00,
2013-05-30 18:35:00,68.5,48.1,20.60,WSW,247,3.0,16.0,48,0.00,,---,0.00,VWS V13.01,2013-05-31 01:35:00,
2013-05-30 18:40:00,68.6,47.6,20.60,West,270,7.0,16.0,47,0.00,,---,0.00,VWS V13.01,2013-05-31 01:40:00,
2013-05-30 18:44:00,68.4,48.0,20.60,WSW,257,3.0,16.0,48,0.00,,---,0.00,VWS V13.01,2013-05-31 01:44:00,
2013-05-30 18:49:00,68.6,47.6,20.60,WNW,299,3.0,16.0,47,0.00,,---,0.00,VWS V13.01,2013-05-31 01:49:00,
2013-05-30 18:54:00,68.1,47.7,20.60,SW,215,3.0,16.0,48,0.00,,---,0.00,VWS V13.01,2013-05-31 01:54:00,
2013-05-30 18:59:00,68.1,47.7,20.60,SW,226,3.0,16.0,48,0.00,,---,0.00,VWS V13.01,2013-05-31 01:59:00,
2013-05-30 19:04:00,68.5,47.5,20.60,WNW,295,0.0,7.0,47,0.00,,---,0.00,VWS V13.01,2013-05-31 02:04:00,
2013-05-30 19:09:00,68.4,48.0,20.60,WSW,240,2.0,7.0,48,0.00,,---,0.00,VWS V13.01,2013-05-31 02:09:00,
2013-05-30 19:14:00,68.1,47.7,20.60,SW,234,0.0,10.0,48,0.00,,---,0.00,VWS V13.01,2013-05-31 02:14:00,
2013-05-30 19:19:00,67.4,47.6,20.60,SSW,205,4.0,10.0,49,0.00,,---,0.00,VWS V13.01,2013-05-31 02:19:00,
2013-05-30 19:24:00,66.9,47.7,20.60,SW,225,1.0,10.0,50,0.00,,---,0.00,VWS V13.01,2013-05-31 02:24:00,
2013-05-30 19:29:00,66.7,47.5,20.60,WSW,246,2.0,10.0,50,0.00,,---,0.00,VWS V13.01,2013-05-31 02:29:00,
2013-05-30 19:34:00,66.6,47.4,20.60,SW,232,3.0,10.0,50,0.00,,---,0.00,VWS V13.01,2013-05-31 02:34:00,
2013-05-30 19:39:00,66.2,47.0,20.60,SW,229,4.0,10.0,50,0.00,,---,0.00,VWS V13.01,2013-05-31 02:39:00,
2013-05-30 19:44:00,65.6,47.0,20.60,West,267,0.0,10.0,51,0.00,,---,0.00,VWS V13.01,2013-05-31 02:44:00,
2013-05-30 19:49:00,64.9,46.4,20.67,West,265,3.0,10.0,51,0.00,,---,0.00,VWS V13.01,2013-05-31 02:49:00,
2013-05-30 19:54:00,64.5,46.5,16.53,WNW,291,2.0,10.0,52,0.00,,---,0.00,VWS V13.01,2013-05-31 02:54:00,
2013-05-30 19:58:00,58.9,45.9,20.60,SW,228,3.0,11.0,62,0.00,,---,0.00,VWS V13.01,2013-05-31 02:58:00,
2013-05-30 19:59:00,64.0,46.5,16.53,SW,219,2.0,10.0,53,0.00,,---,0.00,VWS V13.01,2013-05-31 02:59:00,
2013-05-30 20:00:00,58.8,45.8,20.60,WSW,237,2.0,11.0,62,0.00,,---,0.00,VWS V13.01,2013-05-31 03:00:00,
2013-05-30 20:01:00,58.8,45.8,20.60,WNW,288,1.0,2.0,62,0.00,,---,0.00,VWS V13.01,2013-05-31 03:01:00,
2013-05-30 20:02:00,58.7,45.7,20.60,WNW,286,0.0,2.0,62,0.00,,---,0.00,VWS V13.01,2013-05-31 03:02:00,
2013-05-30 20:04:00,63.8,46.4,16.53,West,266,0.0,4.0,53,0.00,,---,0.00,VWS V13.01,2013-05-31 03:04:00,
2013-05-30 20:09:00,63.8,46.4,20.60,SW,219,0.0,10.0,53,0.00,,---,0.00,VWS V13.01,2013-05-31 03:09:00,
2013-05-30 20:14:00,63.4,46.0,20.60,West,262,2.0,10.0,53,0.00,,---,0.00,VWS V13.01,2013-05-31 03:14:00,
2013-05-30 20:19:00,62.6,46.2,20.60,WNW,295,3.0,10.0,55,0.00,,---,0.00,VWS V13.01,2013-05-31 03:19:00,
2013-05-30 20:24:00,61.9,46.0,20.60,WNW,288,3.0,10.0,56,0.00,,---,0.00,VWS V13.01,2013-05-31 03:24:00,
2013-05-30 20:29:00,61.3,46.0,20.60,SW,225,1.0,10.0,57,0.00,,---,0.00,VWS V13.01,2013-05-31 03:29:00,
2013-05-30 20:34:00,61.1,46.2,20.60,WSW,238,0.0,10.0,58,0.00,,---,0.00,VWS V13.01,2013-05-31 03:34:00,
2013-05-30 20:39:00,60.9,46.0,20.60,West,281,4.0,10.0,58,0.00,,---,0.00,VWS V13.01,2013-05-31 03:39:00,
2013-05-30 20:44:00,60.3,45.9,20.60,WNW,298,7.0,10.0,59,0.00,,---,0.00,VWS V13.01,2013-05-31 03:44:00,
2013-05-30 20:49:00,59.6,45.7,20.60,WNW,300,2.0,11.0,60,0.00,,---,0.00,VWS V13.01,2013-05-31 03:49:00,
2013-05-30 20:54:00,59.3,45.9,20.60,West,259,0.0,11.0,61,0.00,,---,0.00,VWS V13.01,2013-05-31 03:54:00,
2013-05-30 20:59:00,59.0,46.0,20.60,WNW,288,6.0,11.0,62,0.00,,---,0.00,VWS V13.01,2013-05-31 03:59:00,
2013-05-30 21:03:00,58.8,45.8,20.60,SW,236,0.0,2.0,62,0.00,,---,0.00,VWS V13.01,2013-05-31 04:03:00,
2013-05-30 21:08:00,58.6,46.1,20.60,West,259,2.0,6.0,63,0.00,,---,0.00,VWS V13.01,2013-05-31 04:08:00,
2013-05-30 21:13:00,58.4,45.9,20.60,WNW,288,0.0,7.0,63,0.00,,---,0.00,VWS V13.01,2013-05-31 04:13:00,
2013-05-30 21:18:00,58.3,45.8,20.60,WSW,250,0.0,7.0,63,0.00,,---,0.00,VWS V13.01,2013-05-31 04:18:00,
2013-05-30 21:23:00,58.2,46.1,20.60,WSW,257,1.0,10.0,64,0.00,,---,0.00,VWS V13.01,2013-05-31 04:23:00,
2013-05-30 21:28:00,58.0,45.9,20.60,West,263,2.0,10.0,64,0.00,,---,0.00,VWS V13.01,2013-05-31 04:28:00,
2013-05-30 21:33:00,57.8,45.7,20.60,WSW,257,0.0,10.0,64,0.00,,---,0.00,VWS V13.01,2013-05-31 04:33:00,
2013-05-30 21:38:00,57.7,45.6,20.60,SW,224,1.0,10.0,64,0.00,,---,0.00,VWS V13.01,2013-05-31 04:38:00,
2013-05-30 21:43:00,57.5,45.8,20.60,West,270,0.0,10.0,65,0.00,,---,0.00,VWS V13.01,2013-05-31 04:43:00,
2013-05-30 21:48:00,57.4,45.8,20.60,WSW,237,0.0,10.0,65,0.00,,---,0.00,VWS V13.01,2013-05-31 04:48:00,
2013-05-30 21:53:00,57.5,46.2,20.60,SW,219,2.0,10.0,66,0.00,,---,0.00,VWS V13.01,2013-05-31 04:53:00,
2013-05-30 21:58:00,57.4,45.8,20.60,SW,232,0.0,10.0,65,0.00,,---,0.00,VWS V13.01,2013-05-31 04:58:00,
2013-05-30 22:03:00,57.4,45.8,20.60,SW,232,0.0,0.0,65,0.00,,---,0.00,VWS V13.01,2013-05-31 05:03:00,
2013-05-30 22:08:00,57.3,45.7,20.60,SW,232,0.0,1.0,65,0.00,,---,0.00,VWS V13.01,2013-05-31 05:08:00,
2013-05-30 22:13:00,57.3,45.7,20.60,SW,232,0.0,1.0,65,0.00,,---,0.00,VWS V13.01,2013-05-31 05:13:00,
2013-05-30 22:18:00,57.2,45.6,20.60,SW,232,0.0,1.0,65,0.00,,---,0.00,VWS V13.01,2013-05-31 05:18:00,
2013-05-30 22:23:00,57.1,45.9,20.60,SW,232,0.0,4.0,66,0.00,,---,0.00,VWS V13.01,2013-05-31 05:23:00,
2013-05-30 22:28:00,56.9,45.7,20.60,SW,232,0.0,4.0,66,0.00,,---,0.00,VWS V13.01,2013-05-31 05:28:00,
2013-05-30 22:33:00,56.9,45.7,20.60,SW,232,0.0,4.0,66,0.00,,---,0.00,VWS V13.01,2013-05-31 05:33:00,
2013-05-30 22:38:00,56.7,45.5,20.60,SW,232,0.0,4.0,66,0.00,,---,0.00,VWS V13.01,2013-05-31 05:38:00,
2013-05-30 22:43:00,56.6,45.4,20.60,SW,232,0.0,4.0,66,0.00,,---,0.00,VWS V13.01,2013-05-31 05:43:00,
2013-05-30 22:48:00,56.6,45.4,20.60,SW,232,0.0,4.0,66,0.00,,---,0.00,VWS V13.01,2013-05-31 05:48:00,
2013-05-30 22:53:00,56.5,45.3,20.60,SW,232,0.0,4.0,66,0.00,,---,0.00,VWS V13.01,2013-05-31 05:53:00,
2013-05-30 22:58:00,56.5,45.3,20.60,SW,232,0.0,4.0,66,0.00,,---,0.00,VWS V13.01,2013-05-31 05:58:00,
2013-05-30 23:03:00,56.4,45.6,20.60,SW,232,0.0,0.0,67,0.00,,---,0.00,VWS V13.01,2013-05-31 06:03:00,
2013-05-30 23:08:00,56.4,45.6,20.60,SW,232,0.0,1.0,67,0.00,,---,0.00,VWS V13.01,2013-05-31 06:08:00,
2013-05-30 23:13:00,56.2,45.4,20.60,SW,232,0.0,1.0,67,0.00,,---,0.00,VWS V13.01,2013-05-31 06:13:00,
2013-05-30 23:18:00,56.2,45.4,20.60,SW,232,0.0,1.0,67,0.00,,---,0.00,VWS V13.01,2013-05-31 06:18:00,
2013-05-30 23:23:00,56.2,45.4,16.48,SW,232,0.0,1.0,67,0.00,,---,0.00,VWS V13.01,2013-05-31 06:23:00,
2013-05-30 23:28:00,56.2,45.4,16.48,SW,232,0.0,1.0,67,0.00,,---,0.00,VWS V13.01,2013-05-31 06:28:00,
2013-05-30 23:33:00,56.3,45.5,16.48,SW,232,0.0,1.0,67,0.00,,---,0.00,VWS V13.01,2013-05-31 06:33:00,
2013-05-30 23:38:00,56.2,45.4,16.51,SW,232,0.0,1.0,67,0.00,,---,0.00,VWS V13.01,2013-05-31 06:38:00,
2013-05-30 23:43:00,56.1,45.3,16.51,SW,232,0.0,1.0,67,0.00,,---,0.00,VWS V13.01,2013-05-31 06:43:00,
2013-05-30 23:48:00,56.0,45.2,16.51,SW,232,0.0,1.0,67,0.00,,---,0.00,VWS V13.01,2013-05-31 06:48:00,
2013-05-30 23:53:00,55.9,45.5,16.51,SW,232,0.0,1.0,68,0.00,,---,0.00,VWS V13.01,2013-05-31 06:53:00,
2013-05-30 23:58:00,55.7,45.3,16.51,SW,232,0.0,1.0,68,0.00,,---,0.00,VWS V13.01,2013-05-31 06:58:00,